Meteopurmerend
purmerend
Purmerend - Baaienwijk



My webcam  My webcam


Onweer radar Meer informatie blitzortung!


Regen radar Meer informatie rain snow radar


Bezoek onze andere website:

CandyAppleRed WebdesignWebdesign Purmerend Candy Apple Red

MeteopurmerendBlog

Template documentation
and downloads



Het weer levert geen direct gevaar op.    Er zijn geen waarschuwingen afgegeven.

15 daagse weersverwachting Milano (IT)

  • Overzicht
  • Per uur
  • 15 dagen
  • Extra
  • Vergelijk
  • Kaarten
  • Dagkaart
  • Meer »
  • Info
  • Statistieken
  • Directe link
    Temp 6h Neerslag Wind  
 07:46     18:31    Daglengte: 10:45 Vandaag
14:00
16°
10.0 mm
4
20:00
16°
7.3 mm
4
 07:47     18:29    Daglengte: 10:42 Morgen
02:00
15°
4.5 mm
3
08:00
15°
 
5
14:00
20°
 
6
20:00
18°
6.5 mm
6
 07:49     18:28    Daglengte: 10:39 Maandag 21 Okt
02:00
16°
14.9 mm
4
08:00
16°
12.5 mm
3
14:00
20°
10.4 mm
4
20:00
18°
23.1 mm
3
 07:50     18:26    Daglengte: 10:36 Dinsdag 22 Okt
02:00
17°
17.7 mm
2
Locatie info
Region: Lombardia
Latitude: 45.4680°N
Longitude: 9.1818°E
127 masl
Postcode: 20121
Temp/Neerslag /Baro Onweer/Dauwpunt
    Temp Baro 1h Neerslag Dauwpunt Wind UV Bewolking  
 07:46     18:31    Daglengte: 10:45 Vandaag
10:00
15°
1015.0 hPa 4.3 mm
49%
13.2°
4
Windvlaag: 1.1 m/s
88%
11:00
15°
1015.0 hPa 1.4 mm
82%
13.2°
4
Windvlaag: 1.1 m/s
88%
12:00
15°
1015.1 hPa 1.4 mm
82%
13.3°
4
Windvlaag: 0.9 m/s
82%
13:00
16°
1014.9 hPa 1.6 mm
82%
13.5°
4
Windvlaag: 1 m/s
85%
14:00
16°
1014.4 hPa 1.3 mm
82%
13.7°
4
Windvlaag: 1.1 m/s
84%
15:00
17°
1014.0 hPa 1.2 mm
82%
13.9°
4
Windvlaag: 1 m/s
80%
16:00
17°
1013.8 hPa 1.1 mm
82%
13.8°
4
Windvlaag: 0.8 m/s
60%
17:00
17°
1013.7 hPa 1.2 mm
82%
13.6°
4
Windvlaag: 0.5 m/s
78%
18:00
17°
1013.8 hPa 1.6 mm
81%
13.5°
4
Windvlaag: 0.4 m/s
79%
19:00
17°
1014.2 hPa 1.1 mm
82%
13.3°
4
Windvlaag: 0.1 m/s
77%
20:00
16°
1014.6 hPa 1.1 mm
82%
13.3°
4
Windvlaag: -0.1 m/s
85%
21:00
16°
1014.8 hPa 1.2 mm
82%
13.4°
4
Windvlaag: 0 m/s
80%
22:00
16°
1015.1 hPa 1.2 mm
82%
13.3°
3
Windvlaag: 0.2 m/s
79%
23:00
16°
1015.5 hPa 1.1 mm
82%
13.2°
3
Windvlaag: 1.2 m/s
51%
 07:47     18:29    Daglengte: 10:42 Morgen
00:00
16°
1015.8 hPa
82%
13.2°
3
Windvlaag: 1.3 m/s
46%
01:00
15°
1015.9 hPa 1.1 mm
79%
13.1°
3
Windvlaag: 1 m/s
66%
02:00
15°
1016.0 hPa
73%
13.3°
3
Windvlaag: 0.9 m/s
54%
03:00
15°
1015.8 hPa
82%
13.4°
4
Windvlaag: 0.4 m/s
71%
04:00
15°
1015.5 hPa
79%
13.7°
4
Windvlaag: 0.7 m/s
67%
05:00
15°
1015.7 hPa
71%
13.7°
4
Windvlaag: 0.8 m/s
66%
06:00
15°
1015.9 hPa
32%
13.6°
5
Windvlaag: 0.8 m/s
64%
07:00
15°
1016.2 hPa
31%
13.5°
5
Windvlaag: 0.9 m/s
79%
08:00
15°
1016.4 hPa
70%
13.5°
5
Windvlaag: 1 m/s
74%
09:00
15°
1016.7 hPa
75%
13.7°
6
Windvlaag: 1.6 m/s
58%
10:00
16°
1017.0 hPa
33%
14.0°
6
Windvlaag: 1.7 m/s
71%
11:00
17°
1017.2 hPa
31%
14.1°
6
Windvlaag: 2 m/s
58%
12:00
19°
1017.1 hPa
36%
13.8°
6
Windvlaag: 1.9 m/s
53%
13:00
19°
1016.8 hPa
35%
13.7°
6
Windvlaag: 1.6 m/s
66%
14:00
20°
1016.5 hPa
76%
13.6°
6
Windvlaag: 1.6 m/s
75%
15:00
20°
1016.1 hPa 1.3 mm
82%
13.3°
6
Windvlaag: 0.9 m/s
65%
16:00
20°
1015.8 hPa
82%
13.3°
5
Windvlaag: 1.2 m/s
75%
17:00
20°
1015.6 hPa 1.2 mm
82%
13.3°
5
Windvlaag: 1.2 m/s
74%
18:00
19°
1015.9 hPa 1.1 mm
82%
13.4°
5
Windvlaag: 1.3 m/s
82%
19:00
18°
1016.4 hPa 1.6 mm
82%
13.8°
5
Windvlaag: -0.1 m/s
89%
20:00
18°
1016.7 hPa 1.3 mm
82%
14.3°
6
Windvlaag: 0.6 m/s
75%
21:00
17°
1016.8 hPa 1.6 mm
82%
14.1°
6
Windvlaag: 0.4 m/s
87%
22:00
17°
1017.4 hPa 1.9 mm
82%
14.0°
5
Windvlaag: 1.5 m/s
89%
23:00
17°
1018.0 hPa 2.3 mm
82%
14.1°
5
Windvlaag: 1.2 m/s
90%
 07:49     18:28    Daglengte: 10:39 Maandag 21 Okt
00:00
17°
1018.1 hPa 3.3 mm
82%
14.1°
5
Windvlaag: 0.8 m/s
80%
01:00
16°
1018.1 hPa 3.4 mm
82%
14.2°
4
Windvlaag: 0.8 m/s
89%
02:00
16°
1018.1 hPa 2.4 mm
82%
14.2°
4
Windvlaag: 0.6 m/s
77%
03:00
16°
1018.2 hPa 2.0 mm
82%
14.5°
4
Windvlaag: 1.3 m/s
88%
04:00
16°
1018.0 hPa 2.1 mm
82%
14.6°
4
Windvlaag: 1.5 m/s
85%
05:00
16°
1018.3 hPa 2.1 mm
100%
14.2°
4
Windvlaag: 0.7 m/s
72%
06:00
16°
1018.8 hPa 2.0 mm
99%
14.3°
4
Windvlaag: 0.5 m/s
96%
07:00
16°
1019.2 hPa 2.2 mm
100%
14.2°
3
Windvlaag: 0.4 m/s
83%
08:00
16°
1019.4 hPa 2.2 mm
100%
14.2°
3
Windvlaag: 0.3 m/s
98%
09:00
16°
1020.2 hPa 2.2 mm
100%
14.4°
3
Windvlaag: 1.1 m/s
97%
10:00
17°
1020.7 hPa 3.2 mm
100%
14.8°
3
Windvlaag: 1 m/s
98%
11:00
17°
1021.4 hPa 2.2 mm
97%
15.2°
3
Windvlaag: 0.8 m/s
94%
12:00
18°
1021.4 hPa 2.9 mm
94%
15.8°
4
Windvlaag: 1.1 m/s
93%
13:00
19°
1021.6 hPa
50%
15.8°
4
Windvlaag: 1.2 m/s
84%
14:00
20°
1021.3 hPa
94%
15.9°
4
Windvlaag: 0.6 m/s
84%
15:00
20°
1020.6 hPa 4.4 mm
100%
15.8°
3
Windvlaag: 0.2 m/s
74%
16:00
21°
1020.4 hPa 2.8 mm
100%
16.1°
3
Windvlaag: 0.9 m/s
79%
17:00
20°
1020.3 hPa 4.3 mm
100%
16.7°
3
Windvlaag: 1 m/s
85%
18:00
19°
1020.3 hPa 4.4 mm
100%
16.6°
2
Windvlaag: 0.6 m/s
83%
19:00
18°
1020.6 hPa 2.8 mm
100%
16.3°
3
Windvlaag: 0.1 m/s
79%
20:00
18°
1021.2 hPa 4.3 mm
100%
16.3°
3
Windvlaag: 0.3 m/s
62%
21:00
17°
1021.3 hPa 4.5 mm
100%
16.1°
2
Windvlaag: 0.5 m/s
60%
22:00
17°
1021.6 hPa 4.4 mm
100%
16.0°
2
Windvlaag: 2.1 m/s
65%
23:00
17°
1021.9 hPa 4.4 mm
100%
15.9°
2
Windvlaag: 2.3 m/s
69%
 07:50     18:26    Daglengte: 10:36 Dinsdag 22 Okt
00:00
17°
1022.1 hPa 4.4 mm
100%
15.7°
2
Windvlaag: 2 m/s
75%
01:00
17°
1022.2 hPa
100%
15.5°
2
Windvlaag: 1.1 m/s
77%
02:00
17°
1022.2 hPa
100%
15.4°
2
Windvlaag: 0.2 m/s
86%
03:00
16°
1022.6 hPa 12.8 mm
100%
15.3°
2
Windvlaag: 4 m/s
66%
04:00
16°
1022.6 hPa 12.8 mm
100%
15.1°
2
Windvlaag: 3.6 m/s
58%
05:00
16°
1022.8 hPa 12.8 mm
100%
15.0°
2
Windvlaag: 3.7 m/s
52%
06:00
16°
1022.9 hPa 12.8 mm
100%
14.9°
1
Windvlaag: 4.1 m/s
43%
07:00
16°
1023.0 hPa 12.8 mm
100%
14.7°
1
Windvlaag: 3.7 m/s
36%
08:00
16°
1023.2 hPa 12.8 mm
100%
14.5°
1
Windvlaag: 0.6 m/s
28%
09:00
17°
1023.8 hPa   15.1°
1
Windvlaag: 0 m/s
41%
Temp/Neerslag /Baro Onweer/Dauwpunt
    Temp Baro Neerslag Dauwpunt Wind Bewolking  
 07:46     18:31    Daglengte: 10:45 Vandaag
11:00
15°
1015.0 hPa 5.8 mm 13.2°
4
88%
14:00
16°
1014.4 hPa 4.3 mm 13.7°
4
84%
17:00
17°
1013.7 hPa 3.4 mm 13.6°
4
78%
20:00
16°
1014.6 hPa 3.9 mm 13.3°
4
85%
23:00
16°
1015.5 hPa 3.4 mm 13.2°
3
51%
 07:47     18:29    Daglengte: 10:42 Morgen
02:00
15°
1016.0 hPa 1.1 mm 13.3°
3
54%
05:00
15°
1015.7 hPa   13.7°
4
66%
08:00
15°
1016.4 hPa   13.5°
5
74%
11:00
17°
1017.2 hPa   14.1°
6
58%
14:00
20°
1016.5 hPa   13.6°
6
75%
17:00
20°
1015.6 hPa 2.4 mm 13.3°
5
74%
20:00
18°
1016.7 hPa 4.1 mm 14.3°
6
75%
23:00
17°
1018.0 hPa 5.8 mm 14.1°
5
90%
 07:49     18:28    Daglengte: 10:39 Maandag 21 Okt
02:00
16°
1018.1 hPa 9.0 mm 14.2°
4
77%
05:00
16°
1018.3 hPa 6.1 mm 14.2°
4
72%
08:00
16°
1019.4 hPa 6.4 mm 14.2°
3
98%
11:00
17°
1021.4 hPa 7.6 mm 15.2°
3
94%
14:00
20°
1021.3 hPa 2.9 mm 15.9°
4
84%
17:00
20°
1020.3 hPa 11.6 mm 16.7°
3
85%
20:00
18°
1021.2 hPa 11.5 mm 16.3°
3
62%
23:00
17°
1021.9 hPa 13.3 mm 15.9°
2
69%
 07:50     18:26    Daglengte: 10:36 Dinsdag 22 Okt
02:00
17°
1022.2 hPa 4.4 mm 15.4°
2
86%
05:00
16°
1022.8 hPa 38.4 mm 15.0°
2
52%
08:00
16°
1023.2 hPa 38.4 mm 14.5°
1
28%
11:00
19°
1023.7 hPa 32.2 mm 15.6°
1
50%
14:00
21°
1023.8 hPa 32.2 mm 16.1°
1
62%
17:00
18°
1023.2 hPa 32.2 mm 15.4°
2
36%
20:00
16°
1022.8 hPa 32.2 mm 14.6°
2
9%
23:00
15°
1022.4 hPa 32.2 mm 14.2°
2
41%
 07:51     18:24    Daglengte: 10:33 Woensdag 23 Okt
02:00
14°
1021.8 hPa 32.2 mm 13.7°
1
72%
05:00
14°
1021.1 hPa 32.2 mm 13.5°
1
82%
08:00
14°
1020.4 hPa 32.2 mm 13.3°
1
92%
11:00
17°
1019.7 hPa 32.2 mm 14.4°
1
83%
14:00
20°
1019.1 hPa 32.2 mm 15.0°
1
74%
17:00
19°
1018.3 hPa 32.2 mm 14.7°
1
83%
20:00
17°
1017.7 hPa 32.2 mm 14.4°
1
92%
23:00
16°
1017.3 hPa 32.2 mm 14.1°
1
91%
 07:53     18:23    Daglengte: 10:30 Donderdag 24 Okt
02:00
15°
1017.0 hPa 32.2 mm 13.7°
2
91%
05:00
15°
1016.1 hPa 32.2 mm 13.7°
3
91%
08:00
15°
1015.1 hPa 32.2 mm 13.7°
4
92%
11:00
16°
1014.9 hPa 32.2 mm 14.4°
4
92%
14:00
17°
1014.8 hPa 32.6 mm 15.0°
4
92%
17:00
16°
1014.7 hPa 33.3 mm 14.0°
5
92%
20:00
15°
1014.8 hPa 37.7 mm 13.1°
5
92%
23:00
15°
1014.8 hPa 40.8 mm 13.2°
4
92%
 07:54     18:21    Daglengte: 10:27 Vrijdag 25 Okt
02:00
15°
1014.8 hPa 43.8 mm 13.4°
3
92%
05:00
15°
1014.7 hPa 45.2 mm 13.4°
3
92%
08:00
15°
1014.8 hPa 45.5 mm 13.5°
3
92%
11:00
17°
1015.8 hPa 46.4 mm 14.0°
2
91%
14:00
18°
1016.8 hPa 46.6 mm 14.4°
1
91%
17:00
17°
1017.3 hPa 46.6 mm 13.9°
1
67%
20:00
15°
1017.9 hPa 46.6 mm 13.3°
1
43%
23:00
14°
1018.5 hPa 46.6 mm 12.1°
2
27%
 07:56     18:19    Daglengte: 10:23 Zaterdag 26 Okt
02:00
12°
1019.0 hPa 47.0 mm 11.0°
2
10%
05:00
11°
1019.0 hPa 47.0 mm 10.3°
1
5%
08:00
10°
1019.1 hPa 94.1 mm 9.5°
1
0%
14:00
22°
1018.6 hPa 94.1 mm 13.8°
1
0%
20:00
17°
1018.4 hPa 94.1 mm 13.2°
1
0%
 07:57     18:18    Daglengte: 10:21 Zondag 27 Okt
02:00
11°
1019.5 hPa 94.1 mm 10.2°
1
0%
07:00
12°
1019.5 hPa 94.1 mm 10.0°
1
0%
13:00
21°
1019.3 hPa 94.1 mm 13.6°
1
0%
19:00
17°
1019.2 hPa 94.1 mm 13.3°
1
0%
 07:58     18:16    Daglengte: 10:18 Maandag 28 Okt
01:00
11°
1019.4 hPa 94.1 mm 10.1°
2
0%
07:00
11°
1018.5 hPa 94.1 mm 9.8°
1
62%
13:00
18°
1018.1 hPa 94.1 mm 13.4°
1
0%
19:00
18°
1015.6 hPa 94.1 mm 8.4°
1
0%
 08:00     18:15    Daglengte: 10:15 Dinsdag 29 Okt
01:00
16°
1016.0 hPa 94.1 mm 8.0°
0
0%
07:00
10°
1019.9 hPa   5.1°
1
11%
13:00
18°
1018.5 hPa   7.4°
1
17%
19:00
12°
1018.9 hPa   7.6°
0
20%
 08:01     18:13    Daglengte: 10:12 Woensdag 30 Okt
01:00
11°
1019.3 hPa   6.4°
1
19%
07:00
10°
Voelt als: 9.9°
1018.9 hPa 0.1 mm 5.6°
1
19%
13:00
17°
1017.2 hPa 0.2 mm 8.5°
1
25%
19:00
12°
1017.5 hPa 0.2 mm 8.4°
0
25%
 08:03     18:12    Daglengte: 10:09 Donderdag 31 Okt
01:00
11°
1017.9 hPa 0.2 mm 7.5°
1
19%
07:00
10°
1017.0 hPa 0.2 mm 6.2°
1
21%
13:00
17°
1015.4 hPa 0.5 mm 8.7°
1
23%
19:00
12°
1016.2 hPa 0.1 mm 8.5°
1
27%
 08:04     18:10    Daglengte: 10:06 Vrijdag 01 Nov
01:00
11°
1017.5 hPa 0.1 mm 7.1°
1
27%
07:00
Voelt als: 8.8°
1017.7 hPa 0.1 mm 5.8°
2
29%
13:00
15°
1016.8 hPa 0.1 mm 7.0°
2
23%
19:00
10°
1018.4 hPa   6.5°
1
16%
 08:05     18:09    Daglengte: 10:04 Zaterdag 02 Nov
01:00
Voelt als: 8.5°
1019.5 hPa   4.5°
1
13%
07:00
Voelt als: 7.2°
1019.4 hPa 0.3 mm 3.1°
1
25%
13:00
14°
1018.1 hPa 0.6 mm 4.9°
1
25%
19:00
10°
Voelt als: 9.5°
1019.2 hPa 0.2 mm 5.1°
1
23%
 08:07     18:07    Daglengte: 10:00 Zondag 03 Nov
01:00
Voelt als: 7.6°
1019.8 hPa 0.3 mm 3.9°
1
30%
07:00
Voelt als: 6.7°
1019.3 hPa 0.3 mm 2.6°
1
24%
  CAPE Lifted Index Hail Supercell Tornado SRH 3km CL BTM PRES CL TOP PRES Swiss DWD icon SMHI TS
 07:46     18:31    Daglengte: 10:45 Vandaag
10:00 0 J/kg 0.4 K 0 % 0 % 0 % 0 m²/s² 0 0 0.97 61
11:00 0 J/kg 0.6 K 0 % 0 % 0 % 0 m²/s² 0 0 1.35 55
12:00 0 J/kg 0.7 K 0 % 0 % 0 % 0 m²/s² 0 0 1.87 80
13:00 0 J/kg 0.4 K 0 % 0 % 0 % 0 m²/s² 0 0 1.9 3
14:00 4 J/kg 0.2 K 0 % 0 % 0 % 0 m²/s² 0 0 1.88 80
15:00 75 J/kg -0.1 K 0 % 0 % 0 % 0 m²/s² 0 0 1.31 80
16:00 160 J/kg -0.3 K 0 % 0 % 0 % 0 m²/s² 0 0 0.69 80
17:00 127 J/kg 0.0 K 0 % 0 % 0 % 0 m²/s² 0 0 0.75 80
18:00 46 J/kg 0.8 K 0 % 0 % 0 % 0 m²/s² 0 0 1.31 80
19:00 1 J/kg 0.8 K 0 % 0 % 0 % 0 m²/s² 0 0 1.37 3
20:00 16 J/kg 0.0 K 0 % 0 % 0 % 0 m²/s² 0 0 0.69 80
21:00 13 J/kg -0.4 K 0 % 0 % 0 % 0 m²/s² 0 0 -0.01 80
22:00 0 J/kg -0.1 K 0 % 0 % 0 % 0 m²/s² 0 0 1.25 80
23:00 0 J/kg 0.2 K 0 % 0 % 0 % 0 m²/s² 0 0 1.85 80
 07:47     18:29    Daglengte: 10:42 Morgen
00:00 0 J/kg 0.4 K 0 % 0 % 0 % 0 m²/s² 0 0 1.93 80
01:00 0 J/kg -0.5 K 0 % 0 % 0 % 0 m²/s² 0 0 0.91 80
02:00 0 J/kg -0.9 K 0 % 0 % 0 % 0 m²/s² 0 0 0.63 3
03:00 0 J/kg -1.0 K 0 % 0 % 0 % 0 m²/s² 0 0 0.74 80
04:00 0 J/kg -1.4 K 0 % 0 % 0 % 0 m²/s² 0 0 0.49 80
05:00 0 J/kg -1.4 K 0 % 0 % 0 % 0 m²/s² 0 0 0.43 3
06:00 0 J/kg -1.1 K 0 % 0 % 0 % 0 m²/s² 0 0 0.58 3
07:00 0 J/kg -1.0 K 0 % 0 % 0 % 0 m²/s² 0 0 0.8 3
08:00 0 J/kg -0.8 K 0 % 0 % 0 % 0 m²/s² 0 0 1.15 3
09:00 0 J/kg -0.8 K 0 % 0 % 0 % 0 m²/s² 0 0 1.09 3
10:00 0 J/kg -0.7 K 0 % 0 % 0 % 0 m²/s² 0 0 0.83 3
11:00 0 J/kg -0.5 K 0 % 0 % 0 % 0 m²/s² 0 0 0.7 3
12:00 0 J/kg -0.2 K 0 % 0 % 0 % 0 m²/s² 0 0 1.21 3
13:00 0 J/kg -0.8 K 0 % 0 % 0 % 0 m²/s² 0 0 0.67 3
14:00 0 J/kg -0.9 K 0 % 0 % 0 % 0 m²/s² 0 0 0.93 3
15:00 0 J/kg -1.5 K 0 % 0 % 0 % 0 m²/s² 0 0 0.78 61
16:00 0 J/kg -1.6 K 0 % 0 % 0 % 0 m²/s² 0 0 0.62 3
17:00 0 J/kg -1.3 K 0 % 0 % 0 % 0 m²/s² 0 0 0.35 3
18:00 0 J/kg -1.6 K 0 % 0 % 0 % 0 m²/s² 0 0 -0.01 80
19:00 0 J/kg -3.1 K 0 % 0 % 0 % 0 m²/s² 0 0 -2.53 80
20:00 0 J/kg -4.6 K 0 % 0 % 0 % 0 m²/s² 0 0 -4.21 80
21:00 0 J/kg -4.3 K 0 % 0 % 0 % 0 m²/s² 0 0 -4.3 80
22:00 0 J/kg -4.6 K 0 % 0 % 0 % 0 m²/s² 0 0 -4.51 80
23:00 0 J/kg -5.0 K 0 % 0 % 0 % 0 m²/s² 0 0 -4.97 80
 07:49     18:28    Daglengte: 10:39 Maandag 21 Okt
00:00 0 J/kg -4.8 K 0 % 0 % 0 % 0 m²/s² 0 0 -4.62 63
01:00 0 J/kg -2.0 K 0 % 0 % 0 % 0 m²/s² 0 0 -1.37 63
02:00 0 J/kg -2.1 K 0 % 0 % 0 % 0 m²/s² 0 0 -1.74 80
03:00 0 J/kg -1.8 K 0 % 0 % 0 % 0 m²/s² 0 0 -1.38 80
04:00 31 J/kg -0.4 K 0 % 0 % 0 % 0 m²/s² 0 0 -0.22 80
05:00 24 J/kg -0.6 K 0 % 0 % 0 % 0 m²/s² 0 0 -0.09 80
06:00 111 J/kg -1.2 K 0 % 0 % 0 % 0 m²/s² 0 0 -0.69 80
07:00 121 J/kg -0.7 K 0 % 0 % 0 % 0 m²/s² 0 0 -0.31 80
08:00 103 J/kg -0.6 K 0 % 0 % 0 % 0 m²/s² 0 0 -0.24 80
09:00 158 J/kg -0.4 K 0 % 0 % 0 % 0 m²/s² 0 0 -0.4 80
10:00 159 J/kg -0.3 K 0 % 0 % 0 % 0 m²/s² 0 0 -0.3 80
11:00 105 J/kg 0.1 K 0 % 0 % 0 % 0 m²/s² 0 0 0.13 80
12:00 34 J/kg 0.1 K 0 % 0 % 0 % 0 m²/s² 0 0 0.1 80
13:00 51 J/kg -0.2 K 0 % 0 % 0 % 0 m²/s² 0 0 -0.11 3
14:00 21 J/kg 0.1 K 0 % 0 % 0 % 0 m²/s² 0 0 0.28 2
15:00 36 J/kg -0.1 K 0 % 0 % 0 % 0 m²/s² 0 0 -0.01
16:00 60 J/kg -0.2 K 0 % 0 % 0 % 0 m²/s² 0 0 -0.11
17:00 88 J/kg -0.5 K 0 % 0 % 0 % 0 m²/s² 0 0 -0.2
18:00 100 J/kg -0.2 K 0 % 0 % 0 % 0 m²/s² 0 0 0.07
19:00 39 J/kg 0.1 K 0 % 0 % 0 % 0 m²/s² 0 0 0.22
20:00 21 J/kg 0.4 K 0 % 0 % 0 % 0 m²/s² 0 0 0.52
21:00 25 J/kg 0.6 K 0 % 0 % 0 % 0 m²/s² 0 0 0.81
22:00 11 J/kg 0.6 K 0 % 0 % 0 % 0 m²/s² 0 0 0.99
23:00 1 J/kg 0.4 K 0 % 0 % 0 % 0 m²/s² 0 0 0.7
 07:50     18:26    Daglengte: 10:36 Dinsdag 22 Okt
00:00 1 J/kg 0.0 K 0 % 0 % 0 % 0 m²/s² 0 0 0.21
01:00 7 J/kg -0.5 K 0 % 0 % 0 % 0 m²/s² 0 0 -0.2
02:00 0 J/kg -0.7 K 0 % 0 % 0 % 0 m²/s² 0 0 -0.43
03:00 0 J/kg -0.5 K 0 % 0 % 0 % 0 m²/s² 0 0 -0.23
04:00 0 J/kg 0.0 K 0 % 0 % 0 % 0 m²/s² 0 0 0.27
05:00 0 J/kg -0.1 K 0 % 0 % 0 % 0 m²/s² 0 0 0.23
06:00 0 J/kg -0.1 K 0 % 0 % 0 % 0 m²/s² 0 0 0.32
07:00 0 J/kg -0.5 K 0 % 0 % 0 % 0 m²/s² 0 0 -0.08
08:00 0 J/kg -0.8 K 0 % 0 % 0 % 0 m²/s² 0 0 -0.41
09:00 0 J/kg 0.0 K 0 % 0 % 0 % 0 m²/s² 0 0 13.83
Temp Baro Wind Neerslag
  EWN Forecast EWN WRFDA DWD ICON FMI HIRLAM MET Norway GFS
 07:46     18:31    Daglengte: 10:45 Vandaag
11:00 14.7° 1015.0 hPa 4.3 m/s 5.8 mm 15.0° 1014.9 hPa 4.2 m/s 7.9 mm 14.6° 1015.0 hPa 3.2 m/s 7.1 mm 16.1° 1015.3 hPa 4.7 m/s 0.0 mm 14.5° 1014.9 hPa 4.4 m/s 2.2 mm 15.9° 1015.2 hPa 3.6 m/s
14:00 16.2° 1014.4 hPa 3.9 m/s 4.3 mm 20.5° 1013.3 hPa 4.3 m/s 12.3 mm 15.8° 1014.1 hPa 2.7 m/s 1.1 mm 17.4° 1015.1 hPa 4.6 m/s 0.0 mm 15.7° 1014.3 hPa 3.3 m/s 4.4 mm 16.9° 1015.0 hPa 3.2 m/s
17:00 17.2° 1013.7 hPa 4.3 m/s 3.4 mm 22.4° 1011.9 hPa 2.7 m/s 12.4 mm 16.5° 1013.8 hPa 3.0 m/s 1.1 mm 18.6° 1014.3 hPa 4.6 m/s 0.0 mm 16.9° 1013.3 hPa 4.5 m/s 3.4 mm 17.8° 1014.0 hPa 3.3 m/s
20:00 16.4° 1014.6 hPa 4.1 m/s 3.9 mm 20.8° 1012.5 hPa 4.1 m/s 12.6 mm 16.0° 1015.1 hPa 2.6 m/s 0.7 mm 18.3° 1014.9 hPa 5.0 m/s 0.0 mm 16.0° 1013.9 hPa 4.4 m/s 4.5 mm 16.9° 1015.0 hPa 3.6 m/s
23:00 15.9° 1015.5 hPa 3.2 m/s 3.4 mm 18.5° 1013.4 hPa 4.9 m/s 12.8 mm 15.7° 1015.6 hPa 2.2 m/s 0.9 mm 17.9° 1016.1 hPa 4.9 m/s 0.0 mm 15.5° 1015.2 hPa 3.1 m/s 1.9 mm 16.4° 1015.8 hPa 3.9 m/s
 07:47     18:29    Daglengte: 10:42 Morgen
02:00 15.2° 1016.0 hPa 3.3 m/s 1.1 mm 17.2° 1013.8 hPa 5.3 m/s 12.8 mm 15.3° 1016.2 hPa 2.0 m/s 0.4 mm 17.0° 1016.4 hPa 5.2 m/s 0.0 mm 14.7° 1015.9 hPa 3.2 m/s 0.0 mm 15.9° 1016.2 hPa 3.3 m/s
05:00 14.8° 1015.7 hPa 4.3 m/s 0.0 mm 16.6° 1013.4 hPa 5.3 m/s 12.8 mm 14.9° 1015.9 hPa 2.2 m/s 0.5 mm 15.5° 1016.0 hPa 5.0 m/s 0.0 mm 14.4° 1015.2 hPa 4.7 m/s 0.0 mm 15.7° 1015.8 hPa 3.6 m/s
08:00 14.9° 1016.4 hPa 5.0 m/s 0.0 mm 16.6° 1013.4 hPa 6.6 m/s 12.8 mm 14.8° 1016.7 hPa 2.4 m/s 0.0 mm 15.8° 1016.7 hPa 5.6 m/s 0.0 mm 14.7° 1015.7 hPa 5.2 m/s 0.8 mm 15.1° 1016.4 hPa 3.1 m/s
11:00 17.5° 1017.2 hPa 5.8 m/s 0.0 mm 18.8° 1014.5 hPa 7.2 m/s 12.8 mm 16.8° 1018.7 hPa 3.4 m/s 0.2 mm 17.9° 1017.2 hPa 8.0 m/s 0.0 mm 17.7° 1016.5 hPa 6.1 m/s 0.0 mm 16.9° 1017.5 hPa 4.2 m/s
14:00 19.8° 1016.5 hPa 6.2 m/s 0.0 mm 21.9° 1013.5 hPa 7.8 m/s 12.8 mm 19.1° 1017.8 hPa 3.0 m/s 0.0 mm 20.6° 1016.5 hPa 7.5 m/s 0.0 mm 20.1° 1015.9 hPa 6.7 m/s 0.0 mm 19.0° 1016.9 hPa 3.5 m/s
17:00 19.5° 1015.6 hPa 5.1 m/s 2.4 mm 23.3° 1012.3 hPa 7.7 m/s 12.8 mm 19.1° 1017.6 hPa 1.5 m/s 0.9 mm 20.6° 1015.5 hPa 6.9 m/s 0.0 mm 19.4° 1015.5 hPa 5.5 m/s 0.8 mm 19.2° 1016.0 hPa 3.2 m/s
20:00 17.5° 1016.7 hPa 6.2 m/s 4.1 mm 19.1° 1013.1 hPa 10.1 m/s 15.7 mm 17.6° 1018.9 hPa 2.2 m/s 1.0 mm 19.0° 1015.9 hPa 6.9 m/s 0.0 mm 17.2° 1016.7 hPa 6.6 m/s 3.3 mm 18.4° 1016.8 hPa 3.4 m/s
23:00 16.9° 1018.0 hPa 5.4 m/s 5.8 mm 19.4° 1014.6 hPa 6.1 m/s 20.4 mm 16.9° 1019.8 hPa 2.6 m/s 1.5 mm 17.6° 1016.9 hPa 7.2 m/s 0.0 mm 16.6° 1018.1 hPa 5.9 m/s 4.4 mm 17.6° 1017.5 hPa 5.2 m/s
 07:49     18:28    Daglengte: 10:39 Maandag 21 Okt
02:00 16.4° 1018.1 hPa 4.0 m/s 9.0 mm 17.1° 1014.5 hPa 3.4 m/s 30.7 mm 16.3° 1020.0 hPa 2.5 m/s 9.4 mm 17.1° 1017.1 hPa 4.3 m/s 0.0 mm 16.3° 1018.3 hPa 6.1 m/s 4.5 mm 16.6° 1016.6 hPa 4.0 m/s
05:00 16.0° 1018.3 hPa 3.7 m/s 6.1 mm 17.3° 1014.6 hPa 3.7 m/s 33.1 mm 16.1° 1020.4 hPa 2.2 m/s 2.2 mm 16.0° 1018.4 hPa 5.2 m/s 1.2 mm 16.2° 1016.8 hPa 3.9 m/s
08:00 15.8° 1019.4 hPa 3.0 m/s 6.4 mm 17.4° 1015.2 hPa 2.8 m/s 33.1 mm 15.8° 1022.0 hPa 1.9 m/s 4.1 mm 15.7° 1019.5 hPa 5.0 m/s 0.4 mm 15.6° 1017.7 hPa 4.2 m/s
11:00 17.3° 1021.4 hPa 3.4 m/s 7.6 mm 17.4° 1017.7 hPa 1.2 m/s 35.0 mm 16.9° 1023.2 hPa 2.3 m/s 3.7 mm 17.9° 1021.5 hPa 4.1 m/s 1.1 mm 17.1° 1019.1 hPa 4.6 m/s
14:00 20.0° 1021.3 hPa 3.9 m/s 2.9 mm 20.7° 1017.4 hPa 4.3 m/s 38.2 mm 20.8° 1023.1 hPa 2.8 m/s 0.6 mm 20.1° 1021.5 hPa 4.1 m/s 0.4 mm 17.4° 1019.9 hPa 3.3 m/s
17:00 20.1° 1020.3 hPa 3.0 m/s 11.6 mm 21.3° 1017.3 hPa 3.8 m/s 38.3 mm 20.1° 1021.0 hPa 2.1 m/s 0.3 mm 18.5° 1019.3 hPa 2.3 m/s
20:00 17.7° 1021.2 hPa 2.7 m/s 11.5 mm 18.6° 1018.5 hPa 3.3 m/s 38.4 mm 17.5° 1021.9 hPa 1.9 m/s 0.4 mm 17.8° 1020.4 hPa 1.3 m/s
23:00 17.1° 1021.9 hPa 2.3 m/s 13.3 mm 17.9° 1019.1 hPa 1.8 m/s 38.4 mm 16.9° 1022.5 hPa 2.0 m/s 17.7° 1021.2 hPa 1.8 m/s
 07:50     18:26    Daglengte: 10:36 Dinsdag 22 Okt
02:00 16.6° 1022.2 hPa 2.1 m/s 4.4 mm 18.4° 1019.9 hPa 1.1 m/s 38.4 mm 16.4° 1023.0 hPa 2.1 m/s 17.6° 1021.4 hPa 1.8 m/s
05:00 16.1° 1022.8 hPa 1.5 m/s 38.4 mm 17.5° 1019.2 hPa 2.6 m/s 38.4 mm 15.8° 1023.4 hPa 1.4 m/s 17.3° 1021.2 hPa 1.2 m/s
08:00 15.5° 1023.2 hPa 0.7 m/s 38.4 mm 16.8° 1020.0 hPa 1.5 m/s 38.4 mm 15.3° 1023.7 hPa 0.6 m/s 16.7° 1021.2 hPa 0.6 m/s
11:00 18.8° 1023.7 hPa 0.8 m/s 32.2 mm 18.8° 1023.9 hPa 0.7 m/s 18.4° 1021.6 hPa 1.4 m/s 32.2 mm
14:00 20.6° 1023.8 hPa 0.9 m/s 32.2 mm 20.6° 1024.0 hPa 0.8 m/s 20.8° 1021.4 hPa 1.7 m/s 32.2 mm
17:00 18.3° 1023.2 hPa 1.6 m/s 32.2 mm 18.1° 1023.5 hPa 1.6 m/s 20.3° 1020.3 hPa 1.7 m/s 32.2 mm
20:00 16.0° 1022.8 hPa 2.3 m/s 32.2 mm 15.7° 1023.0 hPa 2.4 m/s 19.0° 1020.9 hPa 1.0 m/s 32.2 mm
23:00 14.8° 1022.4 hPa 1.8 m/s 32.2 mm 14.6° 1022.5 hPa 1.9 m/s 18.0° 1021.7 hPa 0.7 m/s 32.2 mm
 07:51     18:24    Daglengte: 10:33 Woensdag 23 Okt
02:00 13.7° 1021.8 hPa 1.4 m/s 32.2 mm 13.4° 1021.9 hPa 1.4 m/s 17.4° 1021.0 hPa 1.0 m/s 32.2 mm
05:00 13.7° 1021.1 hPa 1.1 m/s 32.2 mm 13.4° 1021.2 hPa 1.1 m/s 16.7° 1019.6 hPa 0.8 m/s 32.2 mm
08:00 13.6° 1020.4 hPa 0.8 m/s 32.2 mm 13.4° 1020.5 hPa 0.8 m/s 16.2° 1018.9 hPa 0.5 m/s 32.2 mm
11:00 17.0° 1019.7 hPa 0.9 m/s 32.2 mm 16.8° 1019.9 hPa 0.9 m/s 19.6° 1018.4 hPa 0.9 m/s 32.2 mm
14:00 20.3° 1019.1 hPa 0.9 m/s 32.2 mm 20.1° 1019.2 hPa 0.9 m/s 22.5° 1017.5 hPa 0.9 m/s 32.2 mm
17:00 18.9° 1018.3 hPa 0.9 m/s 32.2 mm 18.6° 1018.5 hPa 0.8 m/s 21.8° 1016.8 hPa 1.8 m/s 32.2 mm
20:00 17.4° 1017.7 hPa 0.7 m/s 32.2 mm 17.2° 1017.7 hPa 0.7 m/s 20.0° 1017.3 hPa 0.2 m/s 32.2 mm
23:00 16.1° 1017.3 hPa 1.5 m/s 32.2 mm 15.8° 1017.4 hPa 1.4 m/s 19.3° 1016.7 hPa 2.1 m/s 32.2 mm
 07:53     18:23    Daglengte: 10:30 Donderdag 24 Okt
02:00 14.8° 1017.0 hPa 2.0 m/s 32.2 mm 14.4° 1017.1 hPa 2.1 m/s 18.8° 1016.0 hPa 1.1 m/s 32.2 mm
05:00 14.7° 1016.1 hPa 3.0 m/s 32.2 mm 14.4° 1016.1 hPa 3.1 m/s 17.9° 1016.1 hPa 2.0 m/s 32.2 mm
08:00 14.8° 1015.1 hPa 3.8 m/s 32.2 mm 14.5° 1015.1 hPa 4.1 m/s 17.6° 1015.2 hPa 0.3 m/s 32.2 mm
11:00 15.8° 1014.9 hPa 4.2 m/s 32.2 mm 15.6° 1015.0 hPa 4.4 m/s 17.8° 1014.8 hPa 2.3 m/s 32.2 mm
14:00 16.8° 1014.8 hPa 4.5 m/s 32.6 mm 16.7° 1014.8 hPa 4.7 m/s 18.2° 1014.9 hPa 2.0 m/s 32.6 mm
17:00 16.2° 1014.7 hPa 4.5 m/s 33.3 mm 15.9° 1014.8 hPa 4.8 m/s 18.5° 1014.1 hPa 1.5 m/s 33.3 mm
20:00 15.3° 1014.8 hPa 4.8 m/s 37.7 mm 15.2° 1014.8 hPa 4.9 m/s 16.9° 1015.3 hPa 3.7 m/s 37.7 mm
23:00 15.3° 1014.8 hPa 4.0 m/s 40.8 mm 15.1° 1014.8 hPa 4.2 m/s 17.0° 1015.8 hPa 2.5 m/s 40.8 mm
 07:54     18:21    Daglengte: 10:27 Vrijdag 25 Okt
02:00 15.1° 1014.8 hPa 3.3 m/s 43.8 mm 15.0° 1014.7 hPa 3.4 m/s 16.3° 1015.4 hPa 2.4 m/s 43.8 mm
05:00 15.1° 1014.7 hPa 3.1 m/s 45.2 mm 15.0° 1014.7 hPa 3.2 m/s 16.6° 1015.3 hPa 1.4 m/s 45.2 mm
08:00 15.1° 1014.8 hPa 3.0 m/s 45.5 mm 15.0° 1014.7 hPa 3.1 m/s 16.7° 1015.3 hPa 2.3 m/s 45.5 mm
11:00 16.7° 1015.8 hPa 2.2 m/s 46.4 mm 16.6° 1015.9 hPa 2.2 m/s 16.8° 1015.7 hPa 1.8 m/s 46.4 mm
14:00 18.3° 1016.8 hPa 1.4 m/s 46.6 mm 18.3° 1017.0 hPa 1.4 m/s 18.1° 1015.2 hPa 1.1 m/s 46.6 mm
17:00 16.6° 1017.3 hPa 1.4 m/s 46.6 mm 16.4° 1017.5 hPa 1.4 m/s 18.7° 1014.5 hPa 1.3 m/s 46.6 mm
20:00 14.8° 1017.9 hPa 1.5 m/s 46.6 mm 14.6° 1018.1 hPa 1.5 m/s 17.1° 1015.7 hPa 0.9 m/s 46.6 mm
23:00 13.6° 1018.5 hPa 1.5 m/s 46.6 mm 13.2° 1018.7 hPa 1.6 m/s 17.5° 1017.0 hPa 1.4 m/s 46.6 mm
 07:56     18:19    Daglengte: 10:23 Zaterdag 26 Okt
02:00 12.3° 1019.0 hPa 1.6 m/s 47.0 mm 11.9° 1019.2 hPa 1.6 m/s 17.0° 1016.9 hPa 1.4 m/s 47.0 mm
05:00 11.4° 1019.0 hPa 1.5 m/s 47.0 mm 10.9° 1019.2 hPa 1.5 m/s 16.7° 1016.6 hPa 1.4 m/s 47.0 mm
08:00 10.4° 1019.1 hPa 1.4 m/s 47.0 mm 9.9° 1019.3 hPa 1.4 m/s 16.1° 1016.6 hPa 1.1 m/s 47.0 mm
14:00 22.1° 1018.6 hPa 1.3 m/s 47.0 mm 22.5° 1018.8 hPa 1.4 m/s 18.0° 1016.6 hPa 0.7 m/s 47.0 mm
20:00 16.7° 1018.4 hPa 0.6 m/s 47.0 mm 16.6° 1018.6 hPa 0.6 m/s 17.5° 1016.7 hPa 0.9 m/s 47.0 mm
 07:57     18:18    Daglengte: 10:21 Zondag 27 Okt
02:00 11.3° 1019.5 hPa 1.2 m/s 47.0 mm 10.9° 1019.7 hPa 1.2 m/s 16.3° 1017.4 hPa 0.8 m/s 47.0 mm
07:00 11.7° 1019.5 hPa 0.6 m/s 47.0 mm 11.4° 1019.7 hPa 0.6 m/s 14.9° 1017.0 hPa 0.3 m/s 47.0 mm
13:00 20.9° 1019.3 hPa 0.6 m/s 47.0 mm 20.8° 1019.6 hPa 0.6 m/s 21.9° 1015.9 hPa 0.5 m/s 47.0 mm
19:00 16.8° 1019.2 hPa 0.7 m/s 47.0 mm 16.6° 1019.5 hPa 0.7 m/s 18.5° 1016.1 hPa 0.7 m/s 47.0 mm
 07:58     18:16    Daglengte: 10:18 Maandag 28 Okt
01:00 11.0° 1019.4 hPa 1.5 m/s 47.0 mm 10.5° 1019.7 hPa 1.6 m/s 16.4° 1016.6 hPa 0.6 m/s 47.0 mm
07:00 10.8° 1018.5 hPa 0.7 m/s 47.0 mm 10.5° 1018.7 hPa 0.7 m/s 14.5° 1016.2 hPa 0.9 m/s 47.0 mm
13:00 18.2° 1018.1 hPa 0.7 m/s 47.0 mm 18.0° 1018.4 hPa 0.7 m/s 20.6° 1015.4 hPa 1.3 m/s 47.0 mm
19:00 17.5° 1015.6 hPa 0.9 m/s 47.0 mm 17.5° 1015.6 hPa 0.9 m/s 47.0 mm
 08:00     18:15    Daglengte: 10:15 Dinsdag 29 Okt
01:00 15.7° 1016.0 hPa 0.5 m/s 47.0 mm 15.7° 1016.0 hPa 0.5 m/s 47.0 mm
07:00 10.0° 1019.9 hPa 1.3 m/s 0.0 mm
13:00 17.6° 1018.5 hPa 0.5 m/s 0.0 mm
19:00 12.2° 1018.9 hPa 0.5 m/s 0.0 mm
 08:01     18:13    Daglengte: 10:12 Woensdag 30 Okt
01:00 10.8° 1019.3 hPa 1.1 m/s 0.0 mm
07:00 10.0° 1018.9 hPa 1.3 m/s 0.1 mm
13:00 17.3° 1017.2 hPa 1.1 m/s 0.2 mm
19:00 12.1° 1017.5 hPa 0.2 m/s 0.2 mm
 08:03     18:12    Daglengte: 10:09 Donderdag 31 Okt
01:00 10.9° 1017.9 hPa 0.9 m/s 0.2 mm
07:00 9.9° 1017.0 hPa 1.0 m/s 0.2 mm
13:00 17.2° 1015.4 hPa 1.5 m/s 0.5 mm
19:00 12.0° 1016.2 hPa 0.8 m/s 0.1 mm
 08:04     18:10    Daglengte: 10:06 Vrijdag 01 Nov
01:00 10.6° 1017.5 hPa 1.5 m/s 0.1 mm
07:00 9.3° 1017.7 hPa 1.5 m/s 0.1 mm
13:00 14.9° 1016.8 hPa 1.8 m/s 0.1 mm
19:00 10.3° 1018.4 hPa 0.9 m/s 0.0 mm
 08:05     18:09    Daglengte: 10:04 Zaterdag 02 Nov
01:00 8.9° 1019.5 hPa 1.4 m/s 0.0 mm
07:00 7.8° 1019.4 hPa 1.4 m/s 0.3 mm
13:00 13.8° 1018.1 hPa 1.4 m/s 0.6 mm
19:00 9.5° 1019.2 hPa 1.2 m/s 0.2 mm
 08:07     18:07    Daglengte: 10:00 Zondag 03 Nov
01:00 8.2° 1019.8 hPa 1.5 m/s 0.3 mm
07:00 7.3° 1019.3 hPa 1.4 m/s 0.3 mm
FMI Hirlam - 7.5 km EWN WRFDA - 12 km DWD ICON - 7 km GFS - 25 km Basiskaart






























































Updatetijd (Europe/Amsterdam) Resolutie Lengte Stap
FMI Hirlam 07:00, 13:00, 19:00, 01:00 7.5 km 49h 1h
EWN WRFDA 03:30, 09:30, 15:30, 21:30 12 km 73h 1h
DWD ICON 11:45, 17:45, 23:45, 05:45 7 km 75h 1h
GFS 08:45, 14:45, 20:45, 02:45 25 km 237h 3h
30+ mm
25-30 mm
20-25 mm
15-20 mm
10-15 mm
6-10 mm
4-6 mm
2-4 mm
1-2 mm
0.5-1 mm
0.2-0.5 mm
0.1-0.2 mm
30+ mm
25-30 mm
20-25 mm
15-20 mm
10-15 mm
6-10 mm
4-6 mm
2-4 mm
1-2 mm
0.5-1 mm
0.2-0.5 mm
0.1-0.2 mm
Sneeuwval
Natte sneeuw
Hagel
Vorst
30+ mm
25-30 mm
20-25 mm
15-20 mm
10-15 mm
6-10 mm
4-6 mm
2-4 mm
1-2 mm
0.5-1 mm
0.2-0.5 mm
0.1-0.2 mm
Sneeuwval
Natte sneeuw
Hagel
Vorst
Onweer
50 mm
40 mm
30 mm
26 mm
22 mm
18 mm
14 mm
10 mm
9 mm
8 mm
7 mm
6 mm
5 mm
4.5 mm
4 mm
3.5 mm
3 mm
2.5 mm
2 mm
1.5 mm
1 mm
0.8 mm
0.6 mm
0.4 mm
0.2 mm
0.05 mm
35°
30°
25°
20°
15°
10°
-5°
-10°
-15°
-20°
-25°
-30°
-35°
33> m/s
29 m/s
25 m/s
21 m/s
17 m/s
14 m/s
11 m/s
8 m/s
5 m/s
3 m/s
0 m/s
2600 J/kg
2400 J/kg
2200 J/kg
2000 J/kg
1800 J/kg
1600 J/kg
1400 J/kg
1200 J/kg
1000 J/kg
800 J/kg
600 J/kg
400 J/kg
200 J/kg
70 dBZ
65 dBZ
60 dBZ
55 dBZ
50 dBZ
45 dBZ
40 dBZ
35 dBZ
30 dBZ
25 dBZ
20 dBZ
15 dBZ
10 dBZ
5 dBZ
-1 K
-2 K
-3 K
-4 K
-5 K
-6 K
-7 K
-8 K
-9 K
950 m²/s²
900 m²/s²
850 m²/s²
800 m²/s²
750 m²/s²
700 m²/s²
650 m²/s²
600 m²/s²
550 m²/s²
500 m²/s²
450 m²/s²
400 m²/s²
350 m²/s²
300 m²/s²
250 m²/s²
200 m²/s²
150 m²/s²
100 m²/s²
46 m/s
44 m/s
42 m/s
40 m/s
38 m/s
36 m/s
34 m/s
32 m/s
30 m/s
28 m/s
26 m/s
24 m/s
22 m/s
20 m/s
16 m/s
12 m/s
8 m/s
4 m/s
30 m/s
28 m/s
26 m/s
24 m/s
22 m/s
20 m/s
18 m/s
16 m/s
14 m/s
12 m/s
10 m/s
8 m/s
6 m/s
4 m/s
2 m/s
3.0
2.8
2.6
2.4
2.2
2.0
1.8
1.6
1.4
1.2
1.0
0.8
0.6
0.4
0.2
15
14
13
12
11
10
9
8
7
6
5
4
3
2
1
90%
80%
70%
60%
50%
40%
30%
20%
10%
42
40
38
36
34
32
30
28
26
24
22
20
18
16
14
12
90+ cm
80-90 cm
70-80 cm
60-70 cm
50-60 cm
40-50 cm
30-40 cm
20-30 cm
10-20 cm
1-10 cm
Sneeuwval
Natte sneeuw
Regen
>120 mm
115 mm
110 mm
105 mm
100 mm
95 mm
90 mm
85 mm
80 mm
75 mm
70 mm
65 mm
60 mm
55 mm
50 mm
45 mm
45 mm
40 mm
35 mm
30 mm
25 mm